User: anonymous
Location: Ostrava
(49.8330°N, 18.2830°E)
Time: 15:49:40
(UTC+02:00)
Language:

Explorer 7 - Orbit

View from above orbital plane
View from above orbital plane
View from above satellite
View from above satellite

Ground track
Ground track

The orbit data is extracted from the following two-line orbital elements,

1 00022U 59009A   14262.13021589  .00002101  00000-0  19842-3 0   184
2 00022 050.2845 206.5421 0153603 178.8914 181.2400 14.89685796911657
Epoch (UTC): 19 September 2014 03:07:30
Eccentricity: 0.0153603
inclination: 50.2845°
perigee height: 492 km
apogee height: 706 km
right ascension of ascending node: 206.5421°
argument of perigee: 178.8914°
revolutions per day: 14.89685796
mean anomaly at epoch: 181.2400°
orbit number at epoch: 91165

The dashed part of the orbit path shows where the satellite is in the earth's shadow,  

DLR